Retour au catalogue

FENGYUN 1C DEB

ActifPO
NORAD 36995·DEBRIS·🇨🇳 China

Lancé May 10, 1999 depuis Taiyuan Satellite Launch Center

Loading…

Prochains Passages (prochaines 24 heures)

TLE

VieillissantSource: Space-Track

Époque: Sep 3, 2026, 20:11 UTC

1 36995U 99025ECB 26246.84160025  .00000178  00000-0  13441-3 0  9995
2 36995  98.3059 108.8280 0038206 277.2248  82.4579 14.04922005672799

Suivez FENGYUN 1C DEB en temps réel avec AllMySat

Download on the App Store